Regional Weather Roundup
Issued by NWS

Home | Current Version | Previous Version | Graphics & Text | Print | Product List | Glossary Off
Versions: 1 2 3 4 5 6 7 8 9 10 11 12 13 14 15 16 17 18 19 20 21 22 23 24 25 26 27 28 29 30 31 32 33 34 35 36 37 38 39 40 41 42 43 44 45 46 47 48 49 50

000
ASUS43 KDTX 190210
RWRMI
MICHIGAN HOURLY REGIONAL WEATHER ROUNDUP
NATIONAL WEATHER SERVICE DETROIT/PONTIAC MI
1000 PM EDT FRI APR 18 2014

NOTE: "FAIR" INDICATES FEW OR NO CLOUDS BELOW 12,000 FEET WITH NO
SIGNIFICANT WEATHER AND/OR OBSTRUCTION TO VISIBILITY.

MIZ047>049-052>055-059>063-066>070-074>076-081>083-190300-
SOUTHEAST LOWER MICHIGAN

CITY           SKY/WX    TMP DP  RH WIND       PRES   REMARKS
ADRIAN         CLEAR     51  43  74 SE6       30.29R
ALMA           CLEAR     43  26  51 N12       30.35R
ANN ARBOR      PTCLDY    51  42  71 S3        30.28R
BAD AXE        CLEAR     34  29  81 NE5       30.36R
DETROIT CITY   MOCLDY    47  34  60 NE10      30.31R
DETROIT        MOCLDY    51  38  60 NE6       30.30R
FLINT          PTCLDY    48  39  71 NE10      30.32R
GROSSE ILE     MOCLDY    48  39  71 NE7       30.28R
HILLSDALE      CLEAR     51  32  49 NW10      30.29R
HOWELL         CLEAR     50  33  51 N8        30.29R

CITY           SKY/WX    TMP DP  RH WIND       PRES   REMARKS
JACKSON        CLEAR     48  33  56 NW7       30.30R
LAMBERTVILLE   CLEAR     50  43  76 E3        30.28R
LANSING        CLEAR     48  32  53 NW8       30.32R
LAPEER         NOT AVBL
MASON          CLEAR     49  33  54 NW6       30.30R
MONROE         CLEAR     46  43  87 CALM      30.27R
MT. CLEMENS    MOCLDY    39  31  72 N10       30.32R
PONTIAC        MOCLDY    46  36  68 NE12      30.30R
PORT HOPE        N/A     38  31  76 N14G22    30.34R
PORT HURON     CLEAR     34  30  86 NE9       30.35R
TRI CITIES       N/A     38  33  82 NE12      30.37R
YPSILANTI      CLOUDY    52  40  63 E7        30.29R
$$
MIZ043>046-050>051-056>058-064>065-071>073-077>080-190300-
SOUTHWEST LOWER MICHIGAN

CITY           SKY/WX    TMP DP  RH WIND       PRES   REMARKS
BATTLE CREEK   CLEAR     45  29  53 NW8       30.32R
BENTON HARBOR  CLEAR     35  26  69 N8G20     30.33F
BIG RAPIDS     CLEAR     37  25  61 N10       30.37R
COLDWATER      CLEAR     46  30  54 NW7       30.31R
HOLLAND        CLEAR     41  29  62 N6        30.34S
GRAND RAPIDS   CLEAR     47  26  44 N9        30.33R
KALAMAZOO      CLEAR     43  30  60 NW9       30.32R
MARSHALL       CLEAR     45  31  58 NW5       30.30R
MUSKEGON       CLEAR     41  25  53 N7        30.37R
$$
MIZ016>042-190300-
NORTHERN LOWER MICHIGAN

CITY           SKY/WX    TMP DP  RH WIND       PRES   REMARKS
ALPENA         CLEAR     35  25  66 NW7       30.39R
BEAVER ISLAND  CLEAR     32  28  84 NW6       30.44R
BELLAIRE       PTCLDY    32  27  83 CALM      30.43R
CADILLAC       CLEAR     32  25  76 N5        30.37R
CHARLEVOIX     CLOUDY    34  30  84 CALM      30.46R
FRANKFORT      CLEAR     33  26  76 CALM      30.42S
GAYLORD        CLOUDY    33  24  69 NW3       30.39R
GRAYLING       PTCLDY    33  24  69 N9        30.40R
HARBOR SPRINGS CLOUDY    36  29  74 CALM      30.41S
HOUGHTON LAKE  CLEAR     33  24  69 N7        30.38R
MANISTEE       CLEAR     34  25  69 NE5       30.41S
OSCODA         CLEAR     37  26  64 NW10      30.36R
PELLSTON       CLOUDY    35  27  72 NW7       30.42R
TRAVERSE CITY  CLEAR     35  27  72 N6        30.42R
$$
MIZ007>008-015-190300-
EASTERN UPPER MICHIGAN

CITY           SKY/WX    TMP DP  RH WIND       PRES   REMARKS
KINROSS        CLOUDY    34  32  93 NW9       30.40R
MACKINAC ISLAN CLOUDY    34  29  83 NW9       30.41R
NEWBERRY       CLEAR     30  27  88 NW5       30.42R
S. S. MARIE    CLOUDY    33  30  88 W8        30.39R
$$
MIZ004>006-011>014-085-190300-
CENTRAL UPPER MICHIGAN

CITY           SKY/WX    TMP DP  RH WIND       PRES   REMARKS
MANISTIQUE     CLEAR     30  26  86 N6        30.43R
ESCANABA       CLEAR     36  25  64 NE5       30.43R
MENOMINEE      CLEAR     32  25  74 CALM      30.42R
$$
MIZ001>003-009>011-084-190300-
WESTERN UPPER MICHIGAN

CITY           SKY/WX    TMP DP  RH WIND       PRES   REMARKS
IRON MOUNTAIN  CLEAR     30  22  72 CALM      30.38R
HOUGHTON       CLEAR     29  23  78 SE6       30.40R
COPPER HARBOR    N/A     29  26  89 SW5       30.42R
IRONWOOD       CLEAR     30  21  69 E6        30.32S
$$

ABBREVIATIONS USED IN REMARKS
   TC - TEMPERATURE IN CELSIUS
  WCI - WIND CHILL INDEX
   HX - HEAT INDEX
  VSB - VISIBILITY




USA.gov is the U.S. government's official web portal to all federal, state and local government web resources and services.